Location: Asheville, NC
(35.6000°N, 82.5500°W)
Time: 16:21:25
(UTC-05:00)

AO-85 - Pass Details

Date: 09 February 2018
Orbit: 507 x 779 km, 64.8° (Epoch: 15 February)

Event Time Altitude Azimuth Distance (km) Brightness Sun altitude
Rises 05:58:24 0° 170° (S) 2,610 ? -17.7°
Reaches altitude 10° 06:01:09 10° 148° (SSE) 1,755 ? -17.1°
Maximum altitude 06:03:39 16° 108° (ESE) 1,426 ? -16.6°
Drops below altitude 10° 06:06:14 10° 69° (ENE) 1,832 ? -16.1°
Sets 06:09:10 0° 48° (NE) 2,786 ? -15.5°
